EW0591 Weather Reports


time (UTC)temp
C
wind
direction
speed
KPH
gust
KPH
rain 1hr
cm
rain 24hr
cm
rain mn
cm
humidity
%
barometer
mb
20260508014434 21 223 4.8 4.8 0.00 0.00 0.00 36 1019.9
20260508013930 21 243 3.2 4.8 0.00 0.00 0.00 35 1020.0
20260508013426 21 269 4.8 4.8 0.00 0.00 0.00 36 1019.9
20260508012924 21 271 4.8 4.8 0.00 0.00 0.00 36 1020.1
20260508012420 22 263 8.0 9.7 0.00 0.00 0.00 35 1019.9
20260508011918 22 300 6.4 9.7 0.00 0.00 0.00 34 1019.9
20260508011416 22 283 6.4 8.0 0.00 0.00 0.00 34 1019.9
20260508010913 22 239 6.4 8.0 0.00 0.00 0.00 34 1020.1
20260508010410 22 261 8.0 11.3 0.00 0.00 0.00 33 1020.0
20260508005907 22 277 11.3 16.1 0.00 0.00 0.00 34 1019.9
20260508005404 22 254 11.3 16.1 0.00 0.00 0.00 33 1019.9
20260508004900 22 253 6.4 8.0 0.00 0.00 0.00 35 1019.7
20260508004356 22 282 6.4 8.0 0.00 0.00 0.00 33 1019.8
20260508003853 22 251 1.6 3.2 0.00 0.00 0.00 37 1019.9
20260508003350 22 338 14.5 20.9 0.00 0.00 0.00 35 1019.9
20260508002848 22 311 9.7 11.3 0.00 0.00 0.00 36 1019.7
20260508002343 22 261 6.4 9.7 0.00 0.00 0.00 35 1020.0
20260508001840 22 303 9.7 11.3 0.00 0.00 0.00 34 1019.9
20260508001336 22 281 6.4 8.0 0.00 0.00 0.00 34 1019.9
20260508000832 23 320 6.4 8.0 0.00 0.00 0.00 34 1019.8
20260508000329 22 288 6.4 8.0 0.00 0.00 0.00 36 1019.6
20260507235825 22 344 14.5 17.7 0.00 0.00 0.00 35 1019.7
20260507235323 23 5 11.3 12.9 0.00 0.00 0.00 35 1019.7
20260507234820 23 290 8.0 9.7 0.00 0.00 0.00 32 1019.6
20260507234317 22 287 6.4 8.0 0.00 0.00 0.00 34 1019.5
20260507233813 23 291 8.0 9.7 0.00 0.00 0.00 32 1019.5
20260507233311 22 324 11.3 16.1 0.00 0.00 0.00 34 1019.8
20260507232809 23 336 12.9 20.9 0.00 0.00 0.00 34 1019.6
20260507232306 23 243 6.4 11.3 0.00 0.00 0.00 33 1019.7
20260507231802 23 339 11.3 12.9 0.00 0.00 0.00 33 1019.8
20260507231259 23 312 6.4 8.0 0.00 0.00 0.00 36 1019.7
20260507230755 23 355 11.3 14.5 0.00 0.00 0.00 34 1019.7
20260507230252 23 3 11.3 12.9 0.00 0.00 0.00 35 1019.8
20260507225752 23 349 14.5 17.7 0.00 0.00 0.00 32 1019.6
20260507225248 23 337 17.7 22.5 0.00 0.00 0.00 32 1019.6
20260507224744 23 2 11.3 12.9 0.00 0.00 0.00 33 1019.6
20260507224241 23 346 6.4 8.0 0.00 0.00 0.00 36 1019.8
20260507223737 22 267 1.6 1.6 0.00 0.00 0.00 40 1019.9
20260507223234 22 87 1.6 3.2 0.00 0.00 0.00 37 1019.7
20260507222731 22 315 3.2 3.2 0.00 0.00 0.00 39 1020.0
20260507222227 21 172 1.6 3.2 0.00 0.00 0.00 38 1019.9
20260507221724 23 192 8.0 9.7 0.00 0.00 0.00 36 1020.1
20260507221220 23 221 0.0 1.6 0.00 0.00 0.00 36 1019.8
20260507220717 22 288 0.0 1.6 0.00 0.00 0.00 34 1019.8
20260507220216 22 239 0.0 0.0 0.00 0.00 0.00 33 1020.0
20260507215711 22 180 1.6 1.6 0.00 0.00 0.00 34 1020.0
20260507215209 22 46 1.6 1.6 0.00 0.00 0.00 36 1020.2
20260507214706 22 242 0.0 1.6 0.00 0.00 0.00 35 1020.2
20260507214203 22 188 3.2 4.8 0.00 0.00 0.00 38 1020.5
20260507213658 21 10 0.0 1.6 0.00 0.00 0.00 37 1020.2
20260507213156 20 200 0.0 0.0 0.00 0.00 0.00 38 1020.4
20260507212652 20 327 1.6 1.6 0.00 0.00 0.00 41 1020.5
20260507212149 21 63 0.0 0.0 0.00 0.00 0.00 43 1020.7
20260507211646 21 331 4.8 4.8 0.00 0.00 0.00 42 1020.7
20260507211141 21 216 0.0 0.0 0.00 0.00 0.00 36 1020.5
20260507210639 21 102 0.0 0.0 0.00 0.00 0.00 40 1020.8
20260507210135 21 65 1.6 1.6 0.00 0.00 0.00 40 1020.5
20260507205632 22 24 3.2 3.2 0.00 0.00 0.00 40 1020.7
20260507205128 21 229 0.0 0.0 0.00 0.00 0.00 39 1020.6
20260507204625 20 302 3.2 3.2 0.00 0.00 0.00 38 1020.8
20260507204122 21 329 3.2 4.8 0.00 0.00 0.00 40 1020.9
20260507203620 22 357 1.6 3.2 0.00 0.00 0.00 36 1021.0
20260507203117 21 302 1.6 1.6 0.00 0.00 0.00 41 1020.7
20260507202613 21 224 1.6 1.6 0.00 0.00 0.00 37 1021.0
20260507202110 21 311 1.6 3.2 0.00 0.00 0.00 37 1020.9
20260507201605 20 237 0.0 0.0 0.00 0.00 0.00 40 1021.0
20260507201102 20 62 1.6 3.2 0.00 0.00 0.00 39 1021.0
20260507200557 21 356 8.0 9.7 0.00 0.00 0.00 38 1020.7
20260507200053 21 301 1.6 1.6 0.00 0.00 0.00 43 1021.0
20260507195551 21 289 0.0 0.0 0.00 0.00 0.00 43 1020.8
20260507195048 21 208 0.0 1.6 0.00 0.00 0.00 40 1021.0
20260507194544 20 329 4.8 8.0 0.00 0.00 0.00 40 1020.8
20260507194040 21 320 11.3 12.9 0.00 0.00 0.00 40 1021.0
20260507193538 22 238 0.0 0.0 0.00 0.00 0.00 37 1021.0
20260507193034 22 132 3.2 3.2 0.00 0.00 0.00 38 1021.1
20260507192530 22 200 1.6 3.2 0.00 0.00 0.00 36 1021.0
20260507192028 21 163 0.0 0.0 0.00 0.00 0.00 39 1020.8
20260507191523 22 88 3.2 3.2 0.00 0.00 0.00 39 1021.0
20260507191020 21 320 6.4 8.0 0.00 0.00 0.00 38 1020.9
20260507190517 21 279 4.8 4.8 0.00 0.00 0.00 39 1020.9
20260507190016 21 11 8.0 9.7 0.00 0.00 0.00 40 1020.8
20260507185514 20 303 1.6 3.2 0.00 0.00 0.00 42 1021.1
20260507185010 20 301 4.8 4.8 0.00 0.00 0.00 40 1021.1
20260507184509 20 335 3.2 3.2 0.00 0.00 0.00 44 1021.3
20260507184006 21 318 3.2 3.2 0.00 0.00 0.00 41 1021.2
20260507183502 21 220 3.2 3.2 0.00 0.00 0.00 38 1021.5
20260507182959 21 205 4.8 8.0 0.00 0.00 0.00 39 1021.3
20260507182455 20 237 0.0 0.0 0.00 0.00 0.00 45 1021.3
20260507181951 21 5 4.8 8.0 0.00 0.00 0.00 40 1021.5
20260507181448 20 131 0.0 0.0 0.00 0.00 0.00 43 1021.3
20260507180944 20 110 0.0 1.6 0.00 0.00 0.00 43 1021.6
20260507180441 21 217 0.0 0.0 0.00 0.00 0.00 40 1021.5
20260507175937 21 160 6.4 8.0 0.00 0.00 0.00 41 1021.7
20260507175434 20 1 1.6 3.2 0.00 0.00 0.00 41 1021.7
20260507174932 20 133 6.4 8.0 0.00 0.00 0.00 44 1021.8
20260507174429 20 178 1.6 3.2 0.00 0.00 0.00 41 1021.7
20260507173926 20 123 4.8 4.8 0.00 0.00 0.00 40 1021.9
20260507173423 20 50 1.6 1.6 0.00 0.00 0.00 43 1022.0
20260507172920 19 232 0.0 1.6 0.00 0.00 0.00 41 1021.9
20260507172416 20 26 3.2 3.2 0.00 0.00 0.00 42 1022.0
20260507171913 20 161 6.4 9.7 0.00 0.00 0.00 41 1022.0
20260507171409 20 231 0.0 0.0 0.00 0.00 0.00 43 1022.1
20260507170907 20 165 1.6 4.8 0.00 0.00 0.00 45 1021.9
20260507170403 18 246 0.0 0.0 0.00 0.00 0.00 44 1021.8
20260507165859 18 241 1.6 1.6 0.00 0.00 0.00 43 1021.9
20260507165355 18 357 3.2 3.2 0.00 0.00 0.00 46 1022.1
20260507164851 18 274 3.2 3.2 0.00 0.00 0.00 48 1022.0
20260507164348 18 239 0.0 0.0 0.00 0.00 0.00 49 1021.8
20260507163845 18 310 0.0 0.0 0.00 0.00 0.00 46 1022.0
20260507163343 18 216 0.0 0.0 0.00 0.00 0.00 50 1021.8
20260507162839 18 253 3.2 4.8 0.00 0.00 0.00 47 1022.0
20260507162335 18 358 3.2 4.8 0.00 0.00 0.00 50 1022.0
20260507161832 18 308 1.6 4.8 0.00 0.00 0.00 51 1021.9
20260507161328 17 357 4.8 4.8 0.00 0.00 0.00 52 1022.1
20260507160825 17 233 0.0 0.0 0.00 0.00 0.00 53 1022.2
20260507160321 17 295 0.0 0.0 0.00 0.00 0.00 51 1022.2
20260507155818 18 340 1.6 3.2 0.00 0.00 0.00 51 1021.9
20260507155313 17 199 0.0 0.0 0.00 0.00 0.00 52 1022.0
20260507154810 17 164 0.0 0.0 0.00 0.00 0.00 55 1022.3
20260507154308 16 245 0.0 0.0 0.00 0.00 0.00 53 1022.1
20260507153804 16 282 1.6 1.6 0.00 0.00 0.00 53 1022.3
20260507153300 16 240 0.0 0.0 0.00 0.00 0.00 54 1022.2
20260507152757 16 214 0.0 0.0 0.00 0.00 0.00 54 1022.3
20260507152254 15 237 0.0 0.0 0.00 0.00 0.00 59 1022.5
20260507151749 15 250 0.0 0.0 0.00 0.00 0.00 58 1022.6
20260507151246 15 215 1.6 1.6 0.00 0.00 0.00 61 1022.3
20260507150743 15 189 1.6 3.2 0.00 0.00 0.00 61 1022.5
20260507150239 15 244 0.0 1.6 0.00 0.00 0.00 59 1022.2
20260507145736 14 287 3.2 3.2 0.00 0.00 0.00 58 1022.2
20260507145232 13 273 0.0 1.6 0.00 0.00 0.00 62 1022.1
20260507144729 13 242 0.0 0.0 0.00 0.00 0.00 66 1022.3
20260507144227 13 342 1.6 1.6 0.00 0.00 0.00 67 1022.5
20260507143723 12 228 0.0 0.0 0.00 0.00 0.00 68 1022.1
20260507143221 12 309 1.6 3.2 0.00 0.00 0.00 70 1022.1
20260507142716 12 217 0.0 0.0 0.00 0.00 0.00 68 1021.8
20260507142213 12 191 0.0 0.0 0.00 0.00 0.00 72 1021.9
20260507141709 12 206 1.6 3.2 0.00 0.00 0.00 70 1022.0
20260507141207 11 205 0.0 0.0 0.00 0.00 0.00 68 1021.9
20260507140703 11 274 0.0 1.6 0.00 0.00 0.00 74 1021.9
20260507140201 11 152 3.2 3.2 0.00 0.00 0.00 71 1021.8
20260507135657 11 202 0.0 0.0 0.00 0.00 0.00 72 1021.8
20260507135155 11 234 0.0 0.0 0.00 0.00 0.00 69 1021.9
20260507134651 11 124 0.0 1.6 0.00 0.00 0.00 71 1021.8
20260507134147 10 250 0.0 1.6 0.00 0.00 0.00 72 1021.6
20260507133643 11 21 0.0 1.6 0.00 0.00 0.00 74 1021.5
20260507133141 10 249 0.0 0.0 0.00 0.00 0.00 71 1021.7
20260507132638 10 84 1.6 1.6 0.00 0.00 0.00 74 1021.6
20260507132134 9 234 0.0 0.0 0.00 0.00 0.00 76 1021.5
20260507131631 8 206 0.0 0.0 0.00 0.00 0.00 76 1021.6
20260507131128 9 305 3.2 3.2 0.00 0.00 0.00 75 1021.3
20260507130624 7 90 0.0 1.6 0.00 0.00 0.00 80 1021.6
20260507130123 8 259 4.8 4.8 0.00 0.00 0.00 79 1021.5
20260507125621 7 118 3.2 3.2 0.00 0.00 0.00 81 1021.2
20260507125119 7 244 3.2 4.8 0.00 0.00 0.00 82 1021.6
20260507124614 7 42 1.6 3.2 0.00 0.00 0.00 82 1021.5
20260507124113 6 277 0.0 0.0 0.00 0.00 0.00 83 1021.3
20260507123610 6 279 0.0 1.6 0.00 0.00 0.00 83 1021.2
20260507123107 7 247 3.2 3.2 0.00 0.00 0.00 81 1021.1
20260507122602 7 70 4.8 4.8 0.00 0.00 0.00 83 1021.2
20260507122058 7 278 0.0 0.0 0.00 0.00 0.00 82 1021.0
20260507121554 7 101 0.0 1.6 0.00 0.00 0.00 81 1020.7
20260507121050 7 285 0.0 1.6 0.00 0.00 0.00 80 1021.0
20260507120546 7 145 0.0 0.0 0.00 0.00 0.00 79 1020.9
20260507120044 7 293 3.2 3.2 0.00 0.00 0.00 79 1020.9
20260507115540 8 94 0.0 1.6 0.00 0.00 0.00 76 1020.7
20260507115036 8 278 1.6 3.2 0.00 0.00 0.00 75 1020.8
20260507114532 10 61 1.6 1.6 0.00 0.00 0.00 73 1020.7
20260507114029 10 218 0.0 0.0 0.00 0.00 0.00 73 1020.8
20260507113526 9 168 1.6 1.6 0.00 0.00 0.00 73 1020.7
20260507113024 9 6 4.8 4.8 0.00 0.00 0.00 73 1020.4
20260507112521 10 162 3.2 3.2 0.00 0.00 0.00 72 1020.5
20260507112018 10 349 8.0 9.7 0.00 0.00 0.00 70 1020.4
20260507111515 8 268 3.2 4.8 0.00 0.00 0.00 76 1020.2
20260507111011 8 336 4.8 4.8 0.00 0.00 0.00 76 1019.9
20260507110508 10 25 3.2 3.2 0.00 0.00 0.00 74 1020.0
20260507110005 8 59 4.8 8.0 0.00 0.00 0.00 77 1019.8
20260507105501 8 175 4.8 4.8 0.00 0.00 0.00 76 1019.9
20260507104957 8 227 4.8 4.8 0.00 0.00 0.00 78 1020.1
20260507104455 9 205 1.6 1.6 0.00 0.00 0.00 75 1020.1
20260507103950 7 289 1.6 1.6 0.00 0.00 0.00 78 1020.4
20260507103447 8 60 1.6 3.2 0.00 0.00 0.00 77 1020.4
20260507102943 8 254 0.0 0.0 0.00 0.00 0.00 78 1020.1
20260507102440 7 247 0.0 0.0 0.00 0.00 0.00 79 1020.1
20260507101937 7 283 0.0 1.6 0.00 0.00 0.00 79 1020.1
20260507101432 7 215 3.2 4.8 0.00 0.00 0.00 78 1020.1
20260507100928 8 243 0.0 0.0 0.00 0.00 0.00 77 1020.0
20260507100426 8 67 3.2 3.2 0.00 0.00 0.00 78 1020.0
20260507095924 8 10 0.0 1.6 0.00 0.00 0.00 78 1019.9
20260507095421 9 255 6.4 8.0 0.00 0.00 0.00 75 1020.0
20260507094918 10 176 4.8 4.8 0.00 0.00 0.00 74 1020.1
20260507094414 10 178 0.0 1.6 0.00 0.00 0.00 73 1019.9
20260507093911 10 174 1.6 1.6 0.00 0.00 0.00 72 1020.2
20260507093409 8 220 0.0 0.0 0.00 0.00 0.00 75 1020.2
20260507092908 10 260 8.0 8.0 0.00 0.00 0.00 73 1019.9
20260507092403 10 139 4.8 4.8 0.00 0.00 0.00 73 1020.0
20260507091900 10 228 1.6 3.2 0.00 0.00 0.00 73 1019.8
20260507091356 10 343 1.6 1.6 0.00 0.00 0.00 70 1019.9
20260507090852 10 219 0.0 0.0 0.00 0.00 0.00 71 1019.9
20260507090349 11 222 0.0 0.0 0.00 0.00 0.00 69 1019.8
20260507085846 11 196 0.0 0.0 0.00 0.00 0.00 68 1019.9
20260507085343 11 92 1.6 3.2 0.00 0.00 0.00 67 1019.8
20260507084840 11 235 3.2 3.2 0.00 0.00 0.00 70 1019.8
20260507084336 12 119 3.2 3.2 0.00 0.00 0.00 66 1019.7
20260507083834 11 205 0.0 0.0 0.00 0.00 0.00 67 1019.9
20260507083330 11 146 0.0 0.0 0.00 0.00 0.00 68 1019.7
20260507082826 11 194 0.0 1.6 0.00 0.00 0.00 67 1019.9
20260507082322 12 228 0.0 0.0 0.00 0.00 0.00 65 1019.8
20260507081819 12 179 1.6 1.6 0.00 0.00 0.00 63 1019.9
20260507081315 13 193 0.0 0.0 0.00 0.00 0.00 62 1019.8
20260507080812 13 144 1.6 1.6 0.00 0.00 0.00 60 1019.9
20260507080308 12 132 6.4 8.0 0.00 0.00 0.00 62 1019.8
20260507075803 13 237 0.0 0.0 0.00 0.00 0.00 63 1019.7
20260507075300 13 84 3.2 3.2 0.00 0.00 0.00 61 1019.7
20260507074756 12 212 0.0 0.0 0.00 0.00 0.00 63 1019.7
20260507074255 12 196 0.0 0.0 0.00 0.00 0.00 63 1019.5
20260507073751 13 201 0.0 1.6 0.00 0.00 0.00 61 1019.7
20260507073248 13 194 0.0 0.0 0.00 0.00 0.00 63 1019.7
20260507072746 12 340 4.8 4.8 0.00 0.00 0.00 65 1019.6
20260507072243 12 206 0.0 0.0 0.00 0.00 0.00 64 1019.7
20260507071740 12 240 0.0 0.0 0.00 0.00 0.00 65 1019.5
20260507071236 13 149 1.6 1.6 0.00 0.00 0.00 60 1019.5
20260507070733 13 253 0.0 0.0 0.00 0.00 0.00 60 1019.6
20260507070230 13 218 0.0 0.0 0.00 0.00 0.00 62 1019.4
20260507065727 14 171 3.2 3.2 0.00 0.00 0.00 59 1019.5
20260507065224 15 161 3.2 3.2 0.00 0.00 0.00 56 1019.5
20260507064721 15 282 0.0 0.0 0.00 0.00 0.00 55 1019.5
20260507064220 15 192 0.0 0.0 0.00 0.00 0.00 52 1019.2
20260507063717 15 184 1.6 1.6 0.00 0.00 0.00 53 1019.5
20260507063213 16 198 0.0 0.0 0.00 0.00 0.00 51 1019.5
20260507062710 16 185 0.0 1.6 0.00 0.00 0.00 52 1019.6
20260507062208 16 204 0.0 0.0 0.00 0.00 0.00 52 1019.6
20260507061706 16 90 4.8 4.8 0.00 0.00 0.00 50 1019.6
20260507061203 16 359 0.0 1.6 0.00 0.00 0.00 52 1019.4
20260507060701 16 159 4.8 4.8 0.00 0.00 0.00 50 1019.1
20260507060157 16 224 0.0 0.0 0.00 0.00 0.00 50 1019.2
20260507055653 17 19 0.0 0.0 0.00 0.00 0.00 48 1019.0
20260507055149 17 40 0.0 1.6 0.00 0.00 0.00 45 1019.6
20260507054645 15 301 0.0 1.6 0.00 0.00 0.00 48 1019.7
20260507054142 15 124 1.6 3.2 0.00 0.00 0.00 47 1019.7
20260507053641 16 198 4.8 4.8 0.00 0.00 0.00 54 1019.7
20260507053138 17 293 0.0 0.0 0.00 0.00 0.00 47 1019.6
20260507052637 18 58 0.0 1.6 0.00 0.00 0.00 39 1019.2
20260507052132 15 16 1.6 3.2 0.00 0.00 0.00 53 1019.6
20260507051630 16 144 0.0 0.0 0.00 0.00 0.00 54 1019.5
20260507051127 15 208 0.0 0.0 0.00 0.00 0.00 56 1019.6
20260507050624 16 137 0.0 1.6 0.00 0.00 0.00 55 1019.0
20260507050120 17 184 0.0 0.0 0.00 0.00 0.00 48 1019.4
20260507045617 17 150 1.6 1.6 0.00 0.00 0.00 52 1019.2
20260507045114 19 11 6.4 8.0 0.00 0.00 0.00 44 1019.1
20260507044611 19 220 4.8 4.8 0.00 0.00 0.00 40 1019.1
20260507044108 18 206 8.0 9.7 0.00 0.00 0.00 40 1019.5
20260507043603 18 207 1.6 1.6 0.00 0.00 0.00 45 1019.4
20260507043101 18 234 0.0 0.0 0.00 0.00 0.00 45 1019.4
20260507042556 18 113 1.6 1.6 0.00 0.00 0.00 45 1019.1
20260507042052 18 73 1.6 1.6 0.00 0.00 0.00 45 1019.4
20260507041549 19 97 1.6 1.6 0.00 0.00 0.00 44 1019.2
20260507041046 19 184 4.8 4.8 0.00 0.00 0.00 41 1019.2
20260507040543 20 216 4.8 4.8 0.00 0.00 0.00 43 1019.4
20260507040039 20 258 0.0 0.0 0.00 0.00 0.00 40 1019.2
20260507035535 20 90 8.0 12.9 0.00 0.00 0.00 41 1019.1
20260507035032 20 166 4.8 9.7 0.00 0.00 0.00 39 1019.0
20260507034528 17 216 0.0 0.0 0.00 0.00 0.00 49 1018.8
20260507034026 17 8 4.8 4.8 0.00 0.00 0.00 53 1019.0
20260507033524 17 150 0.0 0.0 0.00 0.00 0.00 51 1018.8
20260507033021 18 38 1.6 1.6 0.00 0.00 0.00 49 1018.8
20260507032518 17 27 1.6 1.6 0.00 0.00 0.00 52 1018.4
20260507032014 18 62 3.2 3.2 0.00 0.00 0.00 50 1018.6
20260507031510 20 48 0.0 0.0 0.00 0.00 0.00 44 1018.6
20260507031008 20 231 3.2 4.8 0.00 0.00 0.00 42 1018.4
20260507030504 18 110 1.6 3.2 0.00 0.00 0.00 44 1018.7
20260507030002 18 141 3.2 3.2 0.00 0.00 0.00 50 1018.4
20260507025459 19 156 4.8 4.8 0.00 0.00 0.00 45 1018.4
20260507024957 17 208 3.2 3.2 0.00 0.00 0.00 51 1018.6
20260507024454 18 197 0.0 1.6 0.00 0.00 0.00 51 1018.1
20260507023950 18 147 0.0 0.0 0.00 0.00 0.00 47 1018.3
20260507023447 18 333 1.6 1.6 0.00 0.00 0.00 48 1018.3
20260507022944 18 172 0.0 0.0 0.00 0.00 0.00 45 1018.7
20260507022441 19 258 0.0 0.0 0.00 0.00 0.00 43 1018.7
20260507021936 18 234 0.0 1.6 0.00 0.00 0.00 45 1018.5
20260507021432 18 203 0.0 0.0 0.00 0.00 0.00 50 1018.6
20260507020930 19 264 0.0 0.0 0.00 0.00 0.00 51 1018.4
20260507020426 20 240 4.8 8.0 0.00 0.00 0.00 43 1018.5
20260507015923 18 74 3.2 4.8 0.00 0.00 0.00 43 1018.3
20260507015422 18 206 0.0 1.6 0.00 0.00 0.00 51 1018.6
20260507014918 19 289 3.2 3.2 0.00 0.00 0.00 49 1018.3